• In Denmark
  • List of Countries
  • For 7 days
  • Water Temperature
  • Satellite Maps
  • Weather Map
  • Weather Widgets
  • user-avatar
    Login

    Hourly Weather Mostar

    Today, 15 December, Friday

    Time Temperature Precipitation Wind Pressure Humidity
    00:00 +11°C° 0.3 mm 6 mps 750 mmHg 92%
    01:00 +11°C° 0 mm 7 mps 749 mmHg 91%
    02:00 +11°C° 0.2 mm 7 mps 749 mmHg 91%
    03:00 +11°C° 0.2 mm 7 mps 749 mmHg 92%
    04:00 +11°C° 0.2 mm 6 mps 749 mmHg 92%
    05:00 +11°C° 0.3 mm 7 mps 748 mmHg 92%
    06:00 +11°C° 0.3 mm 7 mps 748 mmHg 92%
    07:00 +12°C° 0 mm 4 mps 747 mmHg 91%
    08:00 +13°C° 0.9 mm 6 mps 747 mmHg 92%
    09:00 +12°C° 0.9 mm 7 mps 747 mmHg 92%
    10:00 +12°C° 0.9 mm 8 mps 747 mmHg 93%
    11:00 +12°C° 2.1 mm 8 mps 746 mmHg 94%
    12:00 +12°C° 2.1 mm 9 mps 746 mmHg 94%
    13:00 +12°C° 0 mm 8 mps 745 mmHg 94%
    14:00 +12°C° 4 mm 9 mps 745 mmHg 95%
    15:00 +12°C° 4 mm 9 mps 744 mmHg 95%
    16:00 +11°C° 4 mm 10 mps 744 mmHg 95%
    17:00 +12°C° 5.2 mm 10 mps 743 mmHg 94%
    18:00 +12°C° 5.2 mm 11 mps 743 mmHg 93%
    19:00 +12°C° 5.2 mm 12 mps 742 mmHg 91%
    20:00 +12°C° 4.1 mm 12 mps 742 mmHg 90%
    21:00 +12°C° 4.1 mm 13 mps 741 mmHg 90%
    22:00 +12°C° 4.1 mm 13 mps 741 mmHg 89%
    23:00 +12°C° 3.7 mm 12 mps 741 mmHg 89%

    Tomorrow, 16 December, Saturday

    Time Temperature Precipitation Wind Pressure Humidity
    00:00 +12°C° 3.7 mm 12 mps 741 mmHg 89%
    01:00 +12°C° 3.7 mm 11 mps 742 mmHg 89%
    02:00 +12°C° 1.7 mm 10 mps 742 mmHg 90%
    03:00 +11°C° 1.7 mm 8 mps 743 mmHg 92%
    04:00 +11°C° 1.7 mm 6 mps 743 mmHg 93%
    05:00 +10°C° 0.7 mm 6 mps 744 mmHg 91%
    06:00 +10°C° 0.7 mm 5 mps 744 mmHg 89%
    07:00 +11°C° 0.7 mm 4 mps 744 mmHg 86%
    08:00 +10°C° 0.3 mm 4 mps 745 mmHg 84%
    09:00 +10°C° 0.3 mm 3 mps 746 mmHg 82%
    10:00 +10°C° 0.3 mm 3 mps 747 mmHg 80%
    11:00 +10°C° 0.1 mm 2 mps 747 mmHg 77%
    12:00 +12°C° 0.1 mm 2 mps 747 mmHg 75%
    13:00 +12°C° 0.1 mm 2 mps 747 mmHg 73%
    14:00 +10°C° 0 mm 2 mps 747 mmHg 75%
    15:00 +11°C° 0 mm 1 mps 747 mmHg 77%
    16:00 +11°C° 0 mm 1 mps 748 mmHg 79%
    17:00 +10°C° 0.1 mm 1 mps 748 mmHg 80%
    18:00 +10°C° 0.1 mm 1 mps 748 mmHg 81%
    19:00 +9°C° 0.1 mm 2 mps 749 mmHg 82%
    20:00 +9°C° 0.5 mm 2 mps 749 mmHg 82%
    21:00 +9°C° 0.5 mm 2 mps 749 mmHg 83%
    22:00 +9°C° 0.5 mm 3 mps 749 mmHg 84%
    23:00 +8°C° 0.8 mm 3 mps 749 mmHg 85%

    Day after tomorrow, 17 December, Sunday

    Time Temperature Precipitation Wind Pressure Humidity
    00:00 +8°C° 0.8 mm 3 mps 750 mmHg 85%
    01:00 +8°C° 0.8 mm 3 mps 750 mmHg 86%
    02:00 +7°C° 0.5 mm 3 mps 750 mmHg 86%
    03:00 +7°C° 0.5 mm 3 mps 750 mmHg 86%
    04:00 +7°C° 0.5 mm 3 mps 750 mmHg 86%
    05:00 +5°C° 0.6 mm 4 mps 751 mmHg 84%
    06:00 +5°C° 0.6 mm 4 mps 751 mmHg 83%
    07:00 +5°C° 0.6 mm 5 mps 752 mmHg 81%
    08:00 +5°C° 0.5 mm 5 mps 752 mmHg 80%
    09:00 +4°C° 0.5 mm 6 mps 753 mmHg 80%
    10:00 +4°C° 0.5 mm 6 mps 754 mmHg 79%
    11:00 +4°C° 0.4 mm 6 mps 754 mmHg 78%
    12:00 +4°C° 0.4 mm 6 mps 754 mmHg 77%
    13:00 +4°C° 0.4 mm 7 mps 754 mmHg 77%
    14:00 +3°C° 0.3 mm 6 mps 755 mmHg 76%
    15:00 +3°C° 0.3 mm 6 mps 755 mmHg 76%
    16:00 +3°C° 0.3 mm 6 mps 755 mmHg 76%
    17:00 +3°C° 0.1 mm 6 mps 756 mmHg 75%
    18:00 +2°C° 0.1 mm 6 mps 757 mmHg 75%
    19:00 +2°C° 0.1 mm 6 mps 757 mmHg 75%
    20:00 +2°C° 0 mm 6 mps 758 mmHg 74%
    21:00 +2°C° 0 mm 5 mps 759 mmHg 74%
    22:00 +1°C° 0 mm 5 mps 759 mmHg 74%
    23:00 +1°C° 0 mm 5 mps 760 mmHg 74%

    18 December, Monday

    Time Temperature Precipitation Wind Pressure Humidity
    00:00 +1°C° 0 mm 5 mps 760 mmHg 74%
    01:00 +1°C° 0 mm 5 mps 760 mmHg 73%
    02:00 +1°C° 0 mm 5 mps 760 mmHg 73%
    03:00 +1°C° 0 mm 5 mps 761 mmHg 73%
    04:00 +1°C° 0 mm 5 mps 761 mmHg 73%
    05:00 0°C° 0 mm 4 mps 761 mmHg 73%
    06:00 0°C° 0 mm 4 mps 762 mmHg 73%
    07:00 0°C° 0 mm 4 mps 763 mmHg 74%
    08:00 +1°C° 0 mm 4 mps 763 mmHg 70%
    09:00 +1°C° 0 mm 4 mps 763 mmHg 67%
    10:00 +3°C° 0 mm 4 mps 763 mmHg 63%
    11:00 +3°C° 0 mm 3 mps 763 mmHg 62%
    12:00 +4°C° 0 mm 3 mps 762 mmHg 60%
    13:00 +4°C° 0 mm 3 mps 762 mmHg 58%
    14:00 +3°C° 0 mm 3 mps 762 mmHg 61%
    15:00 +3°C° 0 mm 3 mps 762 mmHg 65%
    16:00 +3°C° 0 mm 2 mps 761 mmHg 68%
    17:00 +3°C° 0 mm 2 mps 762 mmHg 69%
    18:00 +2°C° 0 mm 2 mps 762 mmHg 69%
    19:00 +2°C° 0 mm 2 mps 762 mmHg 70%
    20:00 +2°C° 0 mm 2 mps 762 mmHg 70%
    21:00 +2°C° 0 mm 2 mps 763 mmHg 69%
    22:00 +2°C° 0 mm 2 mps 763 mmHg 69%
    23:00 +2°C° 0 mm 2 mps 763 mmHg 68%

    19 December, Tuesday

    Time Temperature Precipitation Wind Pressure Humidity
    00:00 +2°C° 0 mm 2 mps 763 mmHg 68%
    01:00 +2°C° 0 mm 2 mps 764 mmHg 68%
    02:00 +2°C° 0 mm 2 mps 764 mmHg 68%
    03:00 +2°C° 0 mm 2 mps 764 mmHg 68%
    04:00 +2°C° 0 mm 2 mps 764 mmHg 69%
    05:00 +2°C° 0 mm 2 mps 765 mmHg 70%
    06:00 +1°C° 0 mm 3 mps 765 mmHg 70%
    07:00 +1°C° 0 mm 3 mps 765 mmHg 71%
    08:00 +2°C° 0 mm 3 mps 766 mmHg 70%
    09:00 +4°C° 0 mm 2 mps 766 mmHg 69%
    10:00 +5°C° 0 mm 2 mps 766 mmHg 67%
    11:00 +6°C° 0 mm 2 mps 766 mmHg 66%
    12:00 +5°C° 0 mm 3 mps 766 mmHg 64%
    13:00 +7°C° 0 mm 3 mps 766 mmHg 62%
    14:00 +5°C° 0 mm 3 mps 766 mmHg 66%
    15:00 +4°C° 0 mm 3 mps 766 mmHg 70%
    16:00 +5°C° 0 mm 2 mps 766 mmHg 73%
    17:00 +3°C° 0 mm 3 mps 767 mmHg 75%
    18:00 +3°C° 0 mm 3 mps 767 mmHg 77%
    19:00 +2°C° 0 mm 3 mps 767 mmHg 79%
    20:00 +2°C° 0 mm 3 mps 767 mmHg 80%
    21:00 +1°C° 0 mm 3 mps 768 mmHg 80%
    22:00 +1°C° 0 mm 3 mps 768 mmHg 81%
    23:00 +1°C° 0 mm 3 mps 768 mmHg 80%

    20 December, Wednesday

    Time Temperature Precipitation Wind Pressure Humidity
    00:00 +1°C° 0 mm 3 mps 768 mmHg 80%
    01:00 +1°C° 0 mm 3 mps 768 mmHg 79%
    02:00 +1°C° 0 mm 3 mps 768 mmHg 79%
    03:00 +1°C° 0 mm 3 mps 768 mmHg 79%
    04:00 0°C° 0 mm 3 mps 768 mmHg 79%
    05:00 0°C° 0 mm 3 mps 768 mmHg 79%
    06:00 0°C° 0 mm 3 mps 768 mmHg 78%
    07:00 0°C° 0 mm 3 mps 769 mmHg 78%
    08:00 +1°C° 0 mm 3 mps 769 mmHg 74%
    09:00 +1°C° 0 mm 3 mps 769 mmHg 70%
    10:00 +2°C° 0 mm 3 mps 769 mmHg 66%
    11:00 +3°C° 0 mm 3 mps 769 mmHg 64%
    12:00 +4°C° 0 mm 3 mps 769 mmHg 61%
    13:00 +4°C° 0 mm 3 mps 769 mmHg 58%
    14:00 +3°C° 0 mm 3 mps 769 mmHg 62%
    15:00 +4°C° 0 mm 2 mps 769 mmHg 65%
    16:00 +3°C° 0 mm 2 mps 769 mmHg 69%
    17:00 +2°C° 0 mm 2 mps 769 mmHg 71%
    18:00 +1°C° 0 mm 2 mps 770 mmHg 73%
    19:00 0°C° 0 mm 3 mps 770 mmHg 75%
    20:00 0°C° 0 mm 3 mps 770 mmHg 74%
    21:00 -1°C° 0 mm 3 mps 770 mmHg 73%
    22:00 -1°C° 0 mm 3 mps 771 mmHg 72%
    23:00 -1°C° 0 mm 2 mps 770 mmHg 70%
    Show more